Location: ??????
(56.0120°N, 39.1740°E)
Time: 14:47:36
(UTC+00:00)

CZ-2C R/B - Pass Details

Date: 14 April 2026
Orbit: 781 x 868 km, 98.4° (Epoch: 17 May)

Event Time Altitude Azimuth Distance (km) Brightness Sun altitude
Exits shadow 21:03:24 50° 127° (SE) 1,088 2.9 -24.2°
Maximum altitude 21:04:45 67° 69° (ENE) 927 2.9 -24.2°
Drops below altitude 10° 21:10:12 10° 348° (NNW) 2,472 6.2 -24.3°
Sets 21:12:34 0° 346° (NNW) 3,399 7.2 -24.3°
